Kirkville, IA

2:46 AM CDT on August 31, 2016 (GMT -0500)
Ottumwa Industrial

Weather History for KOTM - December, 2013

Change the Weather History Date:

Tuesday, December 17, 2013

  Actual Average Record
Temperature  
Mean Temperature 27 °F 25 °F  
Max Temperature 38 °F 34 °F 64 °F (1939)
Min Temperature 15 °F 17 °F -12 °F (1932)
Degree Days  
Heating Degree Days 38 40  
Month to date heating degree days 748 632  
Since 1 July heating degree days 2078 1930  
Cooling Degree Days 0 0  
Month to date cooling degree days 0 0  
Year to date cooling degree days 1014 938  
Moisture  
Dew Point 17 °F    
Average Humidity 68    
Maximum Humidity 92    
Minimum Humidity 44    
Precipitation  
Precipitation 0.00 in 0.04 in 1.00 in (1911)
Month to date precipitation 0.06 0.85  
Year to date precipitation 36.36 36.55  
Sea Level Pressure  
Sea Level Pressure 30.18 in    
Wind  
Wind Speed 12 mph (West)    
Max Wind Speed 32 mph    
Max Gust Speed 41 mph    
Visibility 9 miles    
Events      
T = Trace of Precipitation, MM = Missing Value Source: NWS Daily Summary

Daily Weather History Graph

Daily Weather History Graph

Search for Another Location

Airport or City:

Trip Planner

Search our weather history database for the weather conditions in past years. The results will help you decide how hot, cold, wet, or windy it might be!

Date:

Astronomy

Dec. 17, 2013 Rise Set
Actual Time 7:29 AM CST 4:42 PM CST
Civil Twilight 6:58 AM CST 5:13 PM CST
Nautical Twilight 6:23 AM CST 5:48 PM CST
Astronomical Twilight 5:49 AM CST 6:22 PM CST
Moon 5:23 PM CST (12/17) 7:25 AM CST (12/17)
Length of Visible Light 10h 15m
Length of Day
9h 13m
Full, 100% of the Moon is Illuminated
Dec 17
Full
Dec 25
Last Quarter
Jan 1
New
Jan 7
First Quarter
Jan 15
Full

Hourly Weather History & Observations

Time (CST) Temp. Windchill Dew Point Humidity Pressure Visibility Wind Dir Wind Speed Gust Speed Precip Events Conditions
12:53 AM 21.9 °F 14.5 °F 19.0 °F 89% 30.14 in 6.0 mi SSW 5.8 mph - N/A   Overcast
1:53 AM 17.1 °F 8.7 °F 14.0 °F 88% 30.14 in 5.0 mi SW 5.8 mph - N/A   Mostly Cloudy
2:53 AM 19.0 °F 10.0 °F 16.0 °F 88% 30.14 in 6.0 mi WSW 6.9 mph - N/A   Clear
3:53 AM 16.0 °F 5.3 °F 12.9 °F 88% 30.13 in 7.0 mi WSW 8.1 mph - N/A   Clear
4:53 AM 19.0 °F 10.0 °F 16.0 °F 88% 30.12 in 8.0 mi WSW 6.9 mph - N/A   Clear
5:53 AM 21.0 °F 12.4 °F 18.0 °F 88% 30.10 in 9.0 mi WSW 6.9 mph - N/A   Clear
6:53 AM 27.0 °F 17.3 °F 21.9 °F 81% 30.11 in 10.0 mi West 10.4 mph - N/A   Overcast
7:53 AM 28.9 °F 21.1 °F 25.0 °F 85% 30.14 in 10.0 mi West 8.1 mph - N/A   Overcast
8:53 AM 32.0 °F 22.5 °F 26.1 °F 79% 30.17 in 10.0 mi WNW 12.7 mph - N/A   Overcast
9:53 AM 33.1 °F 23.9 °F 26.1 °F 75% 30.17 in 10.0 mi West 12.7 mph - N/A   Overcast
10:53 AM 36.0 °F 26.0 °F 26.1 °F 67% 30.16 in 10.0 mi WNW 17.3 mph 25.3 mph N/A   Mostly Cloudy
11:53 AM 37.0 °F 25.6 °F 21.9 °F 54% 30.16 in 10.0 mi WNW 24.2 mph 31.1 mph N/A   Clear
12:53 PM 37.0 °F 24.9 °F 17.1 °F 44% 30.16 in 10.0 mi WNW 27.6 mph 33.4 mph N/A   Clear
1:53 PM 37.0 °F 24.9 °F 17.1 °F 44% 30.16 in 10.0 mi NW 27.6 mph 39.1 mph N/A   Clear
2:53 PM 36.0 °F 26.0 °F 17.1 °F 46% 30.17 in 10.0 mi WNW 17.3 mph 31.1 mph N/A   Clear
3:53 PM 35.1 °F 23.8 °F 15.1 °F 44% 30.19 in 10.0 mi WNW 20.7 mph 31.1 mph N/A   Clear
4:53 PM 32.0 °F 19.5 °F 14.0 °F 48% 30.21 in 10.0 mi WNW 21.9 mph - N/A   Clear
5:53 PM 30.0 °F 20.0 °F 14.0 °F 51% 30.22 in 10.0 mi WNW 12.7 mph - N/A   Clear
6:53 PM 26.1 °F 18.4 °F 14.0 °F 60% 30.23 in 10.0 mi West 6.9 mph - N/A   Clear
7:53 PM 25.0 °F 16.3 °F 12.9 °F 60% 30.24 in 10.0 mi West 8.1 mph - N/A   Clear
8:53 PM 24.1 °F 17.0 °F 12.9 °F 62% 30.24 in 10.0 mi West 5.8 mph - N/A   Clear
9:53 PM 23.0 °F 15.8 °F 12.0 °F 63% 30.25 in 10.0 mi West 5.8 mph - N/A   Clear
10:53 PM 19.0 °F 11.1 °F 10.0 °F 68% 30.23 in 10.0 mi WSW 5.8 mph - N/A   Clear
11:53 PM 17.1 °F 10.0 °F 10.0 °F 74% 30.22 in 10.0 mi SW 4.6 mph - N/A   Clear